Find Fastrac-OSCAR-70

NORAD ID: 37380 Int'l Des: 2010-062 Owner: AFSMC Country: US operational
LEOCIRCULAR

Live Position

Loading 3D Globe...

About Fastrac-OSCAR-70

Description loading...

Upcoming Passes

Passes for default location (London). Set your location on the main map for personalized predictions.

Altitude History

Loading altitude history...

Two-Line Element Set

1 37380U 10062M 26105.16764921 .00000459 00000-0 61354-4 0 9991
2 37380 71.9704 286.1735 0017111 235.1812 124.7745 14.84537930356420
Epoch: Apr 15, 2026 • Age: 6 hours

Current Status

Altitude 624.5 km
Velocity 7.54 km/s
Sub-Earth Point 0.62°N, 75.26°W
Launch Date Nov 20, 2010
Age 15.4 years
Type other

Technical Details

Classification Payload
Mass 27.00 kg
Dry Mass 27.00 kg
Total Mass 27.00 kg
Length 0.20 m
Diameter 0.50 m
Span 0.50 m
Shape Hex Cyl
Manufacturer UT
Bus Type FASTRAC
Phase Status In Orbit
Owner/State AFSMC/US

Most Searched